Time,TemperatureF,DewpointF,PressureIn,WindDirection,WindDirectionDegrees,WindSpeedMPH,WindSpeedGustMPH,Humidity,HourlyPrecipIn,Conditions,Clouds,dailyrainin,SoftwareType,DateUTC
2013-03-13 00:03:00,37.0,31.0,30.06,ENE,64,0.0,0.0,79,0.00,,,0.00,,2013-03-13 04:03:00,
2013-03-13 00:13:00,37.0,31.0,30.06,ENE,64,0.0,0.0,79,0.00,,,0.00,,2013-03-13 04:13:00,
2013-03-13 00:22:00,36.0,31.0,30.06,ENE,64,0.0,0.0,81,0.00,,,0.00,,2013-03-13 04:22:00,
2013-03-13 00:32:00,36.0,32.0,30.09,ENE,65,0.0,0.0,85,0.00,,,0.00,,2013-03-13 04:32:00,
2013-03-13 00:43:00,36.0,32.0,30.09,ENE,65,0.0,0.0,85,0.00,,,0.00,,2013-03-13 04:43:00,
2013-03-13 00:52:00,35.0,30.0,30.09,ENE,64,0.0,0.0,83,0.00,,,0.00,,2013-03-13 04:52:00,
2013-03-13 01:02:00,35.0,30.0,30.09,ENE,64,0.0,0.0,83,0.00,,,0.00,,2013-03-13 05:02:00,
2013-03-13 01:12:00,35.0,30.0,30.09,ENE,64,0.0,0.0,83,0.00,,,0.00,,2013-03-13 05:12:00,
2013-03-13 01:22:00,35.0,32.0,30.09,ENE,64,0.0,0.0,89,0.00,,,0.00,,2013-03-13 05:22:00,
2013-03-13 01:32:00,35.0,32.0,30.09,ENE,65,0.0,0.0,89,0.00,,,0.00,,2013-03-13 05:32:00,
2013-03-13 01:42:00,35.0,32.0,30.09,ENE,65,0.0,0.0,89,0.00,,,0.00,,2013-03-13 05:42:00,
2013-03-13 01:52:00,35.0,32.0,30.09,ENE,62,0.0,0.0,90,0.00,,,0.00,,2013-03-13 05:52:00,
2013-03-13 02:02:00,33.0,30.0,30.09,ENE,65,0.0,0.0,87,0.00,,,0.00,,2013-03-13 06:02:00,
2013-03-13 02:12:00,33.0,30.0,30.09,ENE,65,0.0,0.0,87,0.00,,,0.00,,2013-03-13 06:12:00,
2013-03-13 02:23:00,33.0,29.0,30.09,ENE,65,0.0,0.0,86,0.00,,,0.00,,2013-03-13 06:23:00,
2013-03-13 02:32:00,34.0,30.0,30.09,ENE,64,0.0,0.0,86,0.00,,,0.00,,2013-03-13 06:32:00,
2013-03-13 02:42:00,34.0,30.0,30.09,ENE,64,0.0,0.0,86,0.00,,,0.00,,2013-03-13 06:42:00,
2013-03-13 02:53:00,34.0,31.0,30.09,ENE,64,0.0,0.0,89,0.00,,,0.00,,2013-03-13 06:53:00,
2013-03-13 03:02:00,34.0,31.0,30.09,ENE,66,0.0,0.0,90,0.00,,,0.00,,2013-03-13 07:02:00,
2013-03-13 03:12:00,34.0,31.0,30.09,ENE,66,0.0,0.0,90,0.00,,,0.00,,2013-03-13 07:12:00,
2013-03-13 03:22:00,33.0,30.0,30.09,ENE,65,0.0,0.0,89,0.00,,,0.00,,2013-03-13 07:22:00,
2013-03-13 03:32:00,33.0,31.0,30.09,ENE,64,0.0,0.0,91,0.00,,,0.00,,2013-03-13 07:32:00,
2013-03-13 03:42:00,33.0,31.0,30.09,ENE,64,0.0,0.0,91,0.00,,,0.00,,2013-03-13 07:42:00,
2013-03-13 03:53:00,32.0,30.0,30.09,ENE,64,0.0,0.0,91,0.00,,,0.00,,2013-03-13 07:53:00,
2013-03-13 04:03:00,32.0,30.0,30.09,ENE,64,0.0,0.0,91,0.00,,,0.00,,2013-03-13 08:03:00,
2013-03-13 04:12:00,32.0,30.0,30.09,ENE,64,0.0,0.0,91,0.00,,,0.00,,2013-03-13 08:12:00,
2013-03-13 04:23:00,33.0,31.0,30.06,ENE,65,0.0,0.0,91,0.00,,,0.00,,2013-03-13 08:23:00,
2013-03-13 04:32:00,32.0,30.0,30.06,ENE,64,0.0,0.0,91,0.00,,,0.00,,2013-03-13 08:32:00,
2013-03-13 04:43:00,32.0,30.0,30.06,ENE,64,0.0,0.0,91,0.00,,,0.00,,2013-03-13 08:43:00,
2013-03-13 04:54:00,31.0,29.0,30.06,ENE,65,0.0,0.0,91,0.00,,,0.00,,2013-03-13 08:54:00,
2013-03-13 05:02:00,32.0,30.0,30.06,ENE,65,0.0,0.0,92,0.00,,,0.00,,2013-03-13 09:02:00,
2013-03-13 05:12:00,32.0,30.0,30.06,ENE,65,0.0,0.0,92,0.00,,,0.00,,2013-03-13 09:12:00,
2013-03-13 05:22:00,30.0,28.0,30.06,ENE,65,0.0,0.0,92,0.00,,,0.00,,2013-03-13 09:22:00,
2013-03-13 05:32:00,30.0,28.0,30.06,ENE,64,0.0,0.0,92,0.00,,,0.00,,2013-03-13 09:32:00,
2013-03-13 05:42:00,30.0,28.0,30.06,ENE,64,0.0,0.0,92,0.00,,,0.00,,2013-03-13 09:42:00,
2013-03-13 05:52:00,31.0,29.0,30.06,ENE,65,0.0,0.0,93,0.00,,,0.00,,2013-03-13 09:52:00,
2013-03-13 06:02:00,31.0,29.0,30.06,ENE,65,0.0,0.0,92,0.00,,,0.00,,2013-03-13 10:02:00,
2013-03-13 06:12:00,31.0,29.0,30.06,ENE,65,0.0,0.0,92,0.00,,,0.00,,2013-03-13 10:12:00,
2013-03-13 06:22:00,31.0,29.0,30.06,ENE,65,0.0,0.0,92,0.00,,,0.00,,2013-03-13 10:22:00,
2013-03-13 06:32:00,31.0,29.0,30.06,ENE,65,0.0,0.0,92,0.00,,,0.00,,2013-03-13 10:32:00,
2013-03-13 06:42:00,31.0,29.0,30.06,ENE,65,0.0,0.0,92,0.00,,,0.00,,2013-03-13 10:42:00,
2013-03-13 06:52:00,32.0,30.0,30.06,ENE,64,0.0,0.0,91,0.00,,,0.00,,2013-03-13 10:52:00,
2013-03-13 07:02:00,33.0,31.0,30.06,ENE,64,0.0,0.0,91,0.00,,,0.00,,2013-03-13 11:02:00,
2013-03-13 07:13:00,33.0,31.0,30.06,ENE,64,0.0,0.0,91,0.00,,,0.00,,2013-03-13 11:13:00,
2013-03-13 07:22:00,33.0,31.0,30.06,ENE,65,0.0,3.0,91,0.00,,,0.00,,2013-03-13 11:22:00,
2013-03-13 07:32:00,34.0,31.0,30.06,ENE,65,0.0,3.0,90,0.00,,,0.00,,2013-03-13 11:32:00,
2013-03-13 07:42:00,34.0,31.0,30.06,ENE,65,0.0,3.0,90,0.00,,,0.00,,2013-03-13 11:42:00,
2013-03-13 07:53:00,33.0,30.0,30.06,ENE,64,0.0,0.0,90,0.00,,,0.00,,2013-03-13 11:53:00,
2013-03-13 08:02:00,34.0,31.0,30.09,ENE,65,0.0,0.0,90,0.00,,,0.00,,2013-03-13 12:02:00,
2013-03-13 08:12:00,34.0,31.0,30.09,ENE,65,0.0,0.0,90,0.00,,,0.00,,2013-03-13 12:12:00,
2013-03-13 08:22:00,35.0,32.0,30.09,ENE,65,0.0,4.0,90,0.00,,,0.00,,2013-03-13 12:22:00,
2013-03-13 08:32:00,35.0,32.0,30.09,ENE,65,0.0,3.0,90,0.00,,,0.00,,2013-03-13 12:32:00,
2013-03-13 08:42:00,35.0,32.0,30.09,ENE,65,0.0,3.0,90,0.00,,,0.00,,2013-03-13 12:42:00,
2013-03-13 08:53:00,38.0,34.0,30.09,East,85,7.0,7.0,87,0.00,,,0.00,,2013-03-13 12:53:00,
2013-03-13 09:02:00,47.0,35.0,30.09,East,88,3.0,7.0,62,0.00,,,0.00,,2013-03-13 13:02:00,
2013-03-13 09:12:00,47.0,35.0,30.09,East,88,3.0,7.0,62,0.00,,,0.00,,2013-03-13 13:12:00,
2013-03-13 09:22:00,52.0,30.0,30.12,SE,128,7.0,10.0,43,0.00,,,0.00,,2013-03-13 13:22:00,
2013-03-13 09:33:00,54.0,32.0,30.12,East,97,4.0,9.0,43,0.00,,,0.00,,2013-03-13 13:33:00,
2013-03-13 09:43:00,54.0,32.0,30.12,East,97,4.0,9.0,43,0.00,,,0.00,,2013-03-13 13:43:00,
2013-03-13 09:53:00,45.0,25.0,30.12,ESE,119,7.0,12.0,45,0.00,,,0.00,,2013-03-13 13:53:00,
2013-03-13 10:02:00,45.0,25.0,30.12,ESE,109,6.0,11.0,45,0.00,,,0.00,,2013-03-13 14:02:00,
2013-03-13 10:12:00,45.0,25.0,30.12,ESE,109,6.0,11.0,45,0.00,,,0.00,,2013-03-13 14:12:00,
2013-03-13 10:22:00,45.0,25.0,30.12,ESE,109,6.0,11.0,45,0.00,,,0.00,,2013-03-13 14:22:00,
2013-03-13 10:33:00,43.0,24.0,30.12,ESE,107,8.0,13.0,46,0.00,,,0.00,,2013-03-13 14:33:00,
2013-03-13 10:42:00,43.0,24.0,30.12,ESE,107,8.0,13.0,46,0.00,,,0.00,,2013-03-13 14:42:00,
2013-03-13 10:53:00,43.0,23.0,30.12,East,94,5.0,11.0,45,0.00,,,0.00,,2013-03-13 14:53:00,
2013-03-13 11:03:00,44.0,23.0,30.15,East,80,7.0,13.0,43,0.00,,,0.00,,2013-03-13 15:03:00,
2013-03-13 11:12:00,44.0,23.0,30.15,East,80,7.0,13.0,43,0.00,,,0.00,,2013-03-13 15:12:00,
2013-03-13 11:22:00,45.0,20.0,30.15,ESE,121,11.0,20.0,37,0.00,,,0.00,,2013-03-13 15:22:00,
2013-03-13 11:32:00,44.0,19.0,30.15,SE,127,9.0,17.0,37,0.00,,,0.00,,2013-03-13 15:32:00,
2013-03-13 11:43:00,44.0,19.0,30.15,SE,127,9.0,17.0,37,0.00,,,0.00,,2013-03-13 15:43:00,
2013-03-13 11:53:00,46.0,21.0,30.15,East,97,13.0,20.0,36,0.00,,,0.00,,2013-03-13 15:53:00,
2013-03-13 12:03:00,45.0,19.0,30.15,East,80,12.0,20.0,35,0.00,,,0.00,,2013-03-13 16:03:00,
2013-03-13 12:12:00,45.0,19.0,30.15,East,80,12.0,20.0,35,0.00,,,0.00,,2013-03-13 16:12:00,
2013-03-13 12:22:00,44.0,17.0,30.15,ENE,77,7.0,19.0,33,0.00,,,0.00,,2013-03-13 16:22:00,
2013-03-13 12:32:00,46.0,19.0,30.15,ESE,120,11.0,17.0,33,0.00,,,0.00,,2013-03-13 16:32:00,
2013-03-13 12:42:00,46.0,19.0,30.15,ESE,120,11.0,17.0,33,0.00,,,0.00,,2013-03-13 16:42:00,
2013-03-13 12:52:00,46.0,19.0,30.15,East,101,7.0,20.0,33,0.00,,,0.00,,2013-03-13 16:52:00,
2013-03-13 13:02:00,47.0,19.0,30.15,ESE,107,5.0,16.0,32,0.00,,,0.00,,2013-03-13 17:02:00,
2013-03-13 13:12:00,47.0,19.0,30.15,ESE,107,5.0,16.0,32,0.00,,,0.00,,2013-03-13 17:12:00,
2013-03-13 13:23:00,47.0,19.0,30.15,ESE,105,5.0,17.0,32,0.00,,,0.00,,2013-03-13 17:23:00,
2013-03-13 13:32:00,48.0,20.0,30.18,SSE,147,10.0,17.0,32,0.00,,,0.00,,2013-03-13 17:32:00,
2013-03-13 13:42:00,48.0,20.0,30.18,SSE,147,10.0,17.0,32,0.00,,,0.00,,2013-03-13 17:42:00,
2013-03-13 13:53:00,47.0,19.0,30.18,ESE,113,9.0,17.0,32,0.00,,,0.00,,2013-03-13 17:53:00,
2013-03-13 14:02:00,48.0,20.0,30.18,ESE,110,11.0,18.0,32,0.00,,,0.00,,2013-03-13 18:02:00,
2013-03-13 14:12:00,48.0,20.0,30.18,ESE,110,11.0,18.0,32,0.00,,,0.00,,2013-03-13 18:12:00,
2013-03-13 14:22:00,49.0,20.0,30.18,ESE,117,9.0,16.0,32,0.00,,,0.00,,2013-03-13 18:22:00,
2013-03-13 14:33:00,49.0,20.0,30.15,ESE,122,12.0,16.0,32,0.00,,,0.00,,2013-03-13 18:33:00,
2013-03-13 14:42:00,49.0,20.0,30.15,ESE,122,12.0,16.0,32,0.00,,,0.00,,2013-03-13 18:42:00,
2013-03-13 14:52:00,50.0,21.0,30.15,SE,142,8.0,16.0,31,0.00,,,0.00,,2013-03-13 18:52:00,
2013-03-13 15:02:00,51.0,22.0,30.15,SE,140,10.0,14.0,32,0.00,,,0.00,,2013-03-13 19:02:00,
2013-03-13 15:12:00,51.0,22.0,30.15,SE,140,10.0,14.0,32,0.00,,,0.00,,2013-03-13 19:12:00,
2013-03-13 15:22:00,50.0,21.0,30.15,SE,136,11.0,17.0,32,0.00,,,0.00,,2013-03-13 19:22:00,
2013-03-13 15:32:00,50.0,21.0,30.15,SE,136,11.0,17.0,32,0.00,,,0.00,,2013-03-13 19:32:00,
2013-03-13 15:43:00,50.0,21.0,30.15,SE,136,11.0,17.0,32,0.00,,,0.00,,2013-03-13 19:43:00,
2013-03-13 15:53:00,49.0,20.0,30.15,ENE,74,9.0,16.0,32,0.00,,,0.00,,2013-03-13 19:53:00,
2013-03-13 16:02:00,49.0,20.0,30.15,East,92,14.0,18.0,32,0.00,,,0.00,,2013-03-13 20:02:00,
2013-03-13 16:22:00,47.0,19.0,30.18,ENE,67,8.0,17.0,32,0.00,,,0.00,,2013-03-13 20:22:00,
2013-03-13 16:32:00,49.0,20.0,30.18,East,96,11.0,20.0,32,0.00,,,0.00,,2013-03-13 20:32:00,
2013-03-13 16:42:00,49.0,20.0,30.18,East,96,11.0,20.0,32,0.00,,,0.00,,2013-03-13 20:42:00,
2013-03-13 16:52:00,51.0,21.0,30.18,ESE,110,12.0,17.0,31,0.00,,,0.00,,2013-03-13 20:52:00,
2013-03-13 17:02:00,49.0,20.0,30.18,SE,125,15.0,15.0,32,0.00,,,0.00,,2013-03-13 21:02:00,
2013-03-13 17:12:00,49.0,20.0,30.18,SE,125,15.0,15.0,32,0.00,,,0.00,,2013-03-13 21:12:00,
2013-03-13 17:22:00,47.0,19.0,30.18,ENE,75,12.0,17.0,32,0.00,,,0.00,,2013-03-13 21:22:00,
2013-03-13 17:33:00,47.0,19.0,30.18,ESE,118,11.0,16.0,32,0.00,,,0.00,,2013-03-13 21:33:00,
2013-03-13 17:42:00,47.0,19.0,30.18,ESE,118,11.0,16.0,32,0.00,,,0.00,,2013-03-13 21:42:00,
2013-03-13 17:52:00,49.0,20.0,30.18,SE,135,12.0,17.0,32,0.00,,,0.00,,2013-03-13 21:52:00,
2013-03-13 18:02:00,49.0,20.0,30.18,SE,135,12.0,17.0,32,0.00,,,0.00,,2013-03-13 22:02:00,
2013-03-13 18:12:00,49.0,20.0,30.18,SE,135,12.0,17.0,32,0.00,,,0.00,,2013-03-13 22:12:00,
2013-03-13 18:22:00,52.0,20.0,30.18,ESE,112,8.0,18.0,28,0.00,,,0.00,,2013-03-13 22:22:00,
2013-03-13 18:32:00,52.0,20.0,30.21,ESE,119,9.0,18.0,28,0.00,,,0.00,,2013-03-13 22:32:00,
2013-03-13 18:42:00,52.0,20.0,30.21,ESE,119,9.0,18.0,28,0.00,,,0.00,,2013-03-13 22:42:00,
2013-03-13 18:52:00,47.0,19.0,30.21,ESE,108,10.0,16.0,32,0.00,,,0.00,,2013-03-13 22:52:00,
2013-03-13 19:02:00,42.0,15.0,30.21,SE,130,13.0,15.0,33,0.00,,,0.00,,2013-03-13 23:02:00,
2013-03-13 19:10:00,40.0,13.0,30.21,ESE,120,10.0,14.0,33,0.00,,,0.00,,2013-03-13 23:10:00,
2013-03-13 19:12:00,42.0,15.0,30.21,SE,130,13.0,15.0,33,0.00,,,0.00,,2013-03-13 23:12:00,
2013-03-13 19:22:00,41.0,14.0,30.21,SE,136,10.0,15.0,33,0.00,,,0.00,,2013-03-13 23:22:00,
2013-03-13 19:32:00,40.0,13.0,30.21,ESE,120,10.0,14.0,33,0.00,,,0.00,,2013-03-13 23:32:00,
2013-03-13 19:42:00,40.0,13.0,30.21,ESE,120,10.0,14.0,33,0.00,,,0.00,,2013-03-13 23:42:00,
2013-03-13 19:52:00,40.0,13.0,30.21,ESE,120,10.0,14.0,33,0.00,,,0.00,,2013-03-13 23:52:00,
2013-03-13 20:02:00,40.0,13.0,30.21,ESE,120,10.0,14.0,33,0.00,,,0.00,,2013-03-14 00:02:00,
2013-03-13 20:52:00,37.0,13.0,30.24,SE,127,10.0,13.0,36,0.00,,,0.00,,2013-03-14 00:52:00,
2013-03-13 21:00:00,36.0,12.0,30.27,SE,124,4.0,14.0,36,0.00,,,0.00,,2013-03-14 01:00:00,
2013-03-13 21:03:00,37.0,13.0,30.24,SE,127,10.0,13.0,36,0.00,,,0.00,,2013-03-14 01:03:00,
2013-03-13 21:12:00,37.0,13.0,30.24,SE,127,10.0,13.0,36,0.00,,,0.00,,2013-03-14 01:12:00,
2013-03-13 21:22:00,36.0,12.0,30.27,SE,124,4.0,14.0,36,0.00,,,0.00,,2013-03-14 01:22:00,
2013-03-13 21:32:00,36.0,12.0,30.27,SE,124,4.0,14.0,36,0.00,,,0.00,,2013-03-14 01:32:00,
2013-03-13 21:42:00,36.0,12.0,30.27,SE,124,4.0,14.0,36,0.00,,,0.00,,2013-03-14 01:42:00,
2013-03-13 21:53:00,36.0,12.0,30.27,SE,124,4.0,14.0,36,0.00,,,0.00,,2013-03-14 01:53:00,